| time (UTC) | temp F | wind direction | speed MPH | gust MPH | rain 1hr in | rain 24hr in | rain mn in | humidity % | barometer mb |
| 20260509232945 | 55 | 44 | 0.0 | 1.0 | 0.10 | 0.33 | 0.33 | 94 | 1012.0 |
| 20260509232443 | 55 | 44 | 0.0 | 2.0 | 0.12 | 0.33 | 0.33 | 94 | 1012.1 |
| 20260509231944 | 55 | 44 | 1.0 | 3.0 | 0.14 | 0.33 | 0.33 | 94 | 1012.1 |
| 20260509231443 | 55 | 44 | 1.0 | 3.0 | 0.16 | 0.33 | 0.33 | 94 | 1012.0 |
| 20260509230943 | 55 | 72 | 0.0 | 2.0 | 0.17 | 0.33 | 0.33 | 94 | 1012.0 |
| 20260509230443 | 55 | 72 | 0.0 | 1.0 | 0.18 | 0.33 | 0.33 | 94 | 1012.1 |
| 20260509225944 | 55 | 72 | 0.0 | 2.0 | 0.19 | 0.33 | 0.33 | 94 | 1012.1 |
| 20260509225444 | 55 | 72 | 1.0 | 4.0 | 0.19 | 0.32 | 0.32 | 94 | 1012.0 |
| 20260509224943 | 55 | 72 | 1.0 | 4.0 | 0.20 | 0.32 | 0.32 | 94 | 1011.9 |
| 20260509224441 | 56 | 66 | 1.0 | 4.0 | 0.20 | 0.31 | 0.31 | 94 | 1011.9 |
| 20260509223941 | 56 | 59 | 1.0 | 4.0 | 0.20 | 0.30 | 0.31 | 94 | 1011.9 |
| 20260509223443 | 56 | 40 | 1.0 | 4.0 | 0.18 | 0.28 | 0.28 | 94 | 1011.9 |
| 20260509222942 | 56 | 348 | 1.0 | 4.0 | 0.13 | 0.23 | 0.23 | 93 | 1011.9 |
| 20260509222441 | 56 | 34 | 1.0 | 3.0 | 0.11 | 0.21 | 0.21 | 93 | 1011.7 |
| 20260509221943 | 56 | 34 | 0.0 | 3.0 | 0.10 | 0.19 | 0.19 | 93 | 1011.6 |
| 20260509221442 | 56 | 34 | 0.0 | 1.0 | 0.08 | 0.17 | 0.18 | 93 | 1011.5 |
| 20260509220942 | 56 | 34 | 1.0 | 4.0 | 0.07 | 0.16 | 0.17 | 93 | 1011.6 |
| 20260509220442 | 56 | 34 | 1.0 | 4.0 | 0.07 | 0.15 | 0.15 | 93 | 1011.6 |
| 20260509215939 | 56 | 33 | 1.0 | 3.0 | 0.08 | 0.14 | 0.14 | 92 | 1011.5 |
| 20260509215444 | 56 | 33 | 1.0 | 3.0 | 0.08 | 0.12 | 0.12 | 92 | 1011.5 |
| 20260509215438 | 56 | 33 | 1.0 | 3.0 | 0.08 | 0.13 | 0.13 | 92 | 1011.4 |
| 20260509214440 | 56 | 33 | 1.0 | 3.0 | 0.07 | 0.11 | 0.11 | 92 | 1011.5 |
| 20260509213939 | 56 | 31 | 1.0 | 4.0 | 0.06 | 0.10 | 0.10 | 91 | 1011.5 |
| 20260509213437 | 57 | 17 | 1.0 | 4.0 | 0.06 | 0.10 | 0.10 | 92 | 1011.5 |
| 20260509212937 | 57 | 134 | 1.0 | 4.0 | 0.06 | 0.10 | 0.10 | 91 | 1011.4 |
| 20260509212439 | 57 | 44 | 1.0 | 5.0 | 0.05 | 0.09 | 0.09 | 91 | 1011.4 |
| 20260509212434 | 57 | 355 | 1.0 | 4.0 | 0.06 | 0.10 | 0.10 | 91 | 1011.4 |
| 20260509211436 | 57 | 39 | 1.0 | 5.0 | 0.05 | 0.09 | 0.09 | 90 | 1011.2 |
| 20260509210938 | 58 | 146 | 2.0 | 5.0 | 0.02 | 0.06 | 0.06 | 86 | 1010.9 |
| 20260509210933 | 57 | 74 | 2.0 | 5.0 | 0.05 | 0.09 | 0.09 | 89 | 1011.1 |
| 20260509210434 | 58 | 127 | 2.0 | 5.0 | 0.04 | 0.08 | 0.09 | 87 | 1011.1 |
| 20260509205440 | 59 | 159 | 2.0 | 12.0 | 0.00 | 0.04 | 0.04 | 83 | 1010.7 |
| 20260509205435 | 58 | 86 | 2.0 | 7.0 | 0.01 | 0.05 | 0.05 | 84 | 1010.8 |
| 20260509204431 | 59 | 82 | 2.0 | 12.0 | 0.00 | 0.04 | 0.04 | 82 | 1010.6 |
| 20260509203930 | 60 | 34 | 2.0 | 5.0 | 0.00 | 0.04 | 0.04 | 83 | 1011.1 |
| 20260509203428 | 60 | 140 | 2.0 | 10.0 | 0.00 | 0.04 | 0.04 | 83 | 1011.2 |
| 20260509202928 | 60 | 17 | 1.0 | 10.0 | 0.00 | 0.04 | 0.04 | 82 | 1011.0 |
| 20260509202430 | 61 | 195 | 1.0 | 5.0 | 0.00 | 0.04 | 0.04 | 80 | 1011.0 |
| 20260509201927 | 62 | 128 | 1.0 | 5.0 | 0.00 | 0.04 | 0.04 | 78 | 1010.9 |
| 20260509201428 | 62 | 67 | 1.0 | 3.0 | 0.00 | 0.04 | 0.04 | 75 | 1010.9 |
| 20260509200927 | 62 | 48 | 2.0 | 8.0 | 0.00 | 0.04 | 0.04 | 73 | 1010.9 |
| 20260509200429 | 62 | 242 | 2.0 | 8.0 | 0.00 | 0.04 | 0.04 | 73 | 1010.8 |
| 20260509195926 | 62 | 24 | 2.0 | 7.0 | 0.00 | 0.04 | 0.04 | 72 | 1010.8 |
| 20260509195428 | 62 | 114 | 2.0 | 5.0 | 0.00 | 0.04 | 0.04 | 72 | 1010.9 |
| 20260509194926 | 62 | 202 | 1.0 | 7.0 | 0.00 | 0.04 | 0.04 | 72 | 1011.0 |
| 20260509194427 | 62 | 289 | 2.0 | 7.0 | 0.00 | 0.04 | 0.04 | 72 | 1010.9 |
| 20260509193922 | 62 | 34 | 2.0 | 10.0 | 0.00 | 0.04 | 0.04 | 71 | 1010.9 |
| 20260509193423 | 63 | 185 | 2.0 | 10.0 | 0.00 | 0.04 | 0.04 | 71 | 1010.9 |
| 20260509192925 | 63 | 275 | 2.0 | 9.0 | 0.00 | 0.04 | 0.04 | 72 | 1010.9 |
| 20260509192423 | 63 | 67 | 2.0 | 9.0 | 0.00 | 0.04 | 0.04 | 73 | 1011.0 |
| 20260509191922 | 63 | 45 | 1.0 | 6.0 | 0.00 | 0.04 | 0.04 | 73 | 1010.9 |
| 20260509191427 | 63 | 86 | 2.0 | 8.0 | 0.00 | 0.04 | 0.04 | 73 | 1010.9 |
| 20260509191423 | 63 | 9 | 1.0 | 6.0 | 0.00 | 0.04 | 0.04 | 73 | 1010.9 |
| 20260509190422 | 63 | 0 | 2.0 | 8.0 | 0.00 | 0.04 | 0.04 | 72 | 1011.0 |
| 20260509185922 | 63 | 37 | 2.0 | 8.0 | 0.00 | 0.04 | 0.04 | 73 | 1011.1 |
| 20260509185422 | 63 | 116 | 1.0 | 4.0 | 0.00 | 0.04 | 0.04 | 73 | 1011.1 |
| 20260509184927 | 63 | 30 | 1.0 | 5.0 | 0.00 | 0.04 | 0.04 | 74 | 1011.2 |
| 20260509184922 | 63 | 59 | 1.0 | 5.0 | 0.00 | 0.04 | 0.04 | 74 | 1011.1 |
| 20260509183922 | 63 | 321 | 2.0 | 5.0 | 0.00 | 0.04 | 0.04 | 73 | 1011.3 |
| 20260509183422 | 63 | 355 | 2.0 | 9.0 | 0.00 | 0.04 | 0.04 | 74 | 1011.2 |
| 20260509182929 | 62 | 71 | 1.0 | 5.0 | 0.00 | 0.04 | 0.04 | 77 | 1011.2 |
| 20260509182924 | 62 | 69 | 2.0 | 9.0 | 0.00 | 0.04 | 0.04 | 75 | 1011.1 |
| 20260509181922 | 61 | 107 | 1.0 | 4.0 | 0.00 | 0.04 | 0.04 | 79 | 1011.3 |
| 20260509181421 | 60 | 36 | 1.0 | 3.0 | 0.00 | 0.04 | 0.04 | 81 | 1011.4 |
| 20260509180922 | 59 | 62 | 1.0 | 3.0 | 0.00 | 0.04 | 0.04 | 81 | 1011.4 |
| 20260509180421 | 59 | 61 | 1.0 | 3.0 | 0.00 | 0.04 | 0.04 | 81 | 1011.2 |
| 20260509175920 | 59 | 13 | 1.0 | 3.0 | 0.00 | 0.04 | 0.04 | 82 | 1011.4 |
| 20260509175424 | 59 | 100 | 1.0 | 7.0 | 0.00 | 0.04 | 0.04 | 82 | 1011.9 |
| 20260509175419 | 59 | 11 | 1.0 | 7.0 | 0.00 | 0.04 | 0.04 | 81 | 1011.4 |
| 20260509174419 | 59 | 335 | 1.0 | 3.0 | 0.00 | 0.04 | 0.04 | 82 | 1012.3 |
| 20260509173918 | 59 | 9 | 1.0 | 3.0 | 0.00 | 0.04 | 0.04 | 81 | 1012.2 |
| 20260509173424 | 60 | 9 | 1.0 | 9.0 | 0.00 | 0.04 | 0.04 | 79 | 1011.9 |
| 20260509173418 | 59 | 9 | 1.0 | 3.0 | 0.00 | 0.04 | 0.04 | 79 | 1012.0 |
| 20260509172418 | 60 | 355 | 1.0 | 9.0 | 0.00 | 0.04 | 0.04 | 76 | 1012.0 |
| 20260509171917 | 61 | 54 | 1.0 | 2.0 | 0.00 | 0.04 | 0.04 | 75 | 1012.2 |
| 20260509171419 | 61 | 54 | 1.0 | 3.0 | 0.00 | 0.04 | 0.04 | 74 | 1012.1 |
| 20260509170919 | 62 | 53 | 1.0 | 3.0 | 0.00 | 0.04 | 0.04 | 72 | 1011.9 |
| 20260509170419 | 62 | 93 | 1.0 | 3.0 | 0.00 | 0.04 | 0.04 | 71 | 1011.8 |
| 20260509165917 | 62 | 59 | 1.0 | 3.0 | 0.00 | 0.04 | 0.04 | 71 | 1011.8 |
| 20260509165418 | 62 | 355 | 1.0 | 5.0 | 0.00 | 0.04 | 0.04 | 72 | 1011.9 |
| 20260509164916 | 62 | 0 | 1.0 | 5.0 | 0.00 | 0.04 | 0.04 | 71 | 1011.9 |
| 20260509164416 | 61 | 0 | 1.0 | 6.0 | 0.00 | 0.04 | 0.04 | 72 | 1012.0 |
| 20260509163917 | 61 | 0 | 1.0 | 6.0 | 0.00 | 0.04 | 0.04 | 72 | 1011.9 |
| 20260509163417 | 62 | 0 | 1.0 | 3.0 | 0.00 | 0.04 | 0.04 | 71 | 1012.0 |
| 20260509162915 | 62 | 0 | 1.0 | 3.0 | 0.00 | 0.04 | 0.04 | 72 | 1011.9 |
| 20260509162415 | 62 | 0 | 2.0 | 4.0 | 0.00 | 0.04 | 0.04 | 73 | 1011.9 |
| 20260509161919 | 61 | 262 | 1.0 | 3.0 | 0.00 | 0.04 | 0.04 | 74 | 1012.0 |
| 20260509161915 | 62 | 0 | 1.0 | 4.0 | 0.00 | 0.04 | 0.04 | 73 | 1011.9 |
| 20260509160916 | 61 | 0 | 1.0 | 8.0 | 0.00 | 0.04 | 0.04 | 75 | 1012.1 |
| 20260509160415 | 60 | 0 | 1.0 | 8.0 | 0.00 | 0.04 | 0.04 | 76 | 1012.2 |
| 20260509155916 | 60 | 0 | 1.0 | 4.0 | 0.00 | 0.04 | 0.04 | 77 | 1012.5 |
| 20260509155419 | 59 | 122 | 1.0 | 5.0 | 0.00 | 0.04 | 0.04 | 76 | 1012.5 |
| 20260509155414 | 60 | 0 | 1.0 | 5.0 | 0.00 | 0.04 | 0.04 | 77 | 1012.4 |
| 20260509154414 | 59 | 98 | 2.0 | 3.0 | 0.00 | 0.04 | 0.04 | 78 | 1012.5 |
| 20260509153919 | 59 | 92 | 2.0 | 6.0 | 0.00 | 0.04 | 0.04 | 77 | 1012.7 |
| 20260509153914 | 59 | 105 | 2.0 | 4.0 | 0.00 | 0.04 | 0.04 | 77 | 1012.7 |
| 20260509153531 | 59 | 0 | 2.0 | 6.0 | 0.00 | 0.04 | 0.04 | 78 | 1012.7 |
| 20260509152413 | 58 | 0 | 2.0 | 9.0 | 0.00 | 0.04 | 0.04 | 80 | 1012.7 |
| 20260509151912 | 58 | 0 | 2.0 | 9.0 | 0.00 | 0.04 | 0.04 | 81 | 1012.8 |
| 20260509151413 | 57 | 101 | 1.0 | 3.0 | 0.00 | 0.04 | 0.04 | 83 | 1012.8 |
| 20260509150913 | 56 | 0 | 1.0 | 3.0 | 0.00 | 0.04 | 0.04 | 84 | 1012.8 |
| 20260509150412 | 56 | 0 | 2.0 | 5.0 | 0.00 | 0.04 | 0.04 | 84 | 1012.8 |
| 20260509145913 | 56 | 0 | 2.0 | 5.0 | 0.00 | 0.04 | 0.04 | 84 | 1012.7 |
| 20260509145413 | 55 | 0 | 2.0 | 5.0 | 0.00 | 0.04 | 0.04 | 85 | 1012.7 |
| 20260509144417 | 54 | 0 | 2.0 | 5.0 | 0.00 | 0.04 | 0.04 | 88 | 1012.9 |
| 20260509144413 | 55 | 0 | 2.0 | 5.0 | 0.00 | 0.04 | 0.04 | 87 | 1012.8 |
| 20260509143418 | 53 | 0 | 2.0 | 3.0 | 0.00 | 0.04 | 0.04 | 90 | 1013.1 |
| 20260509143412 | 54 | 0 | 2.0 | 4.0 | 0.00 | 0.04 | 0.04 | 89 | 1013.0 |
| 20260509143031 | 53 | 0 | 2.0 | 3.0 | 0.00 | 0.04 | 0.04 | 91 | 1013.1 |
| 20260509141913 | 53 | 0 | 2.0 | 6.0 | 0.00 | 0.04 | 0.04 | 92 | 1013.3 |
| 20260509141413 | 52 | 96 | 2.0 | 6.0 | 0.00 | 0.04 | 0.04 | 92 | 1013.4 |
| 20260509140914 | 52 | 0 | 2.0 | 3.0 | 0.00 | 0.04 | 0.04 | 93 | 1013.3 |
| 20260509140411 | 51 | 115 | 2.0 | 3.0 | 0.00 | 0.04 | 0.04 | 93 | 1013.3 |
| 20260509135910 | 51 | 119 | 1.0 | 2.0 | 0.00 | 0.04 | 0.04 | 93 | 1013.5 |
| 20260509135412 | 51 | 119 | 1.0 | 2.0 | 0.01 | 0.04 | 0.04 | 94 | 1013.7 |
| 20260509134911 | 51 | 119 | 0.0 | 2.0 | 0.01 | 0.04 | 0.04 | 94 | 1013.8 |
| 20260509134409 | 51 | 119 | 0.0 | 3.0 | 0.01 | 0.04 | 0.04 | 94 | 1013.8 |
| 20260509133908 | 50 | 119 | 0.0 | 3.0 | 0.01 | 0.04 | 0.04 | 94 | 1013.8 |
| 20260509133410 | 50 | 261 | 0.0 | 1.0 | 0.01 | 0.04 | 0.04 | 94 | 1013.8 |
| 20260509132913 | 49 | 257 | 0.0 | 2.0 | 0.01 | 0.04 | 0.04 | 94 | 1013.9 |
| 20260509132909 | 50 | 0 | 0.0 | 2.0 | 0.01 | 0.04 | 0.04 | 94 | 1013.8 |
| 20260509131908 | 49 | 0 | 0.0 | 2.0 | 0.01 | 0.04 | 0.04 | 94 | 1013.9 |
| 20260509131404 | 48 | 0 | 0.0 | 3.0 | 0.01 | 0.04 | 0.04 | 94 | 1013.9 |
| 20260509130904 | 48 | 0 | 0.0 | 3.0 | 0.01 | 0.04 | 0.04 | 94 | 1013.8 |
| 20260509130403 | 47 | 0 | 0.0 | 1.0 | 0.01 | 0.04 | 0.04 | 94 | 1013.8 |
| 20260509125909 | 46 | 260 | 0.0 | 1.0 | 0.01 | 0.04 | 0.04 | 93 | 1013.9 |
| 20260509125904 | 46 | 260 | 0.0 | 1.0 | 0.01 | 0.03 | 0.03 | 93 | 1014.0 |
| 20260509124903 | 46 | 260 | 0.0 | 1.0 | 0.01 | 0.03 | 0.03 | 93 | 1014.0 |
| 20260509124402 | 45 | 260 | 0.0 | 1.0 | 0.01 | 0.03 | 0.03 | 93 | 1014.0 |
| 20260509123908 | 45 | 260 | 0.0 | 2.0 | 0.02 | 0.03 | 0.03 | 92 | 1013.8 |
| 20260509123901 | 45 | 260 | 0.0 | 1.0 | 0.01 | 0.03 | 0.03 | 93 | 1013.9 |
| 20260509122910 | 45 | 259 | 0.0 | 2.0 | 0.02 | 0.03 | 0.03 | 92 | 1013.8 |
| 20260509122903 | 45 | 260 | 0.0 | 2.0 | 0.02 | 0.03 | 0.03 | 92 | 1013.7 |
| 20260509121901 | 45 | 259 | 0.0 | 2.0 | 0.03 | 0.03 | 0.03 | 92 | 1013.8 |
| 20260509121408 | 44 | 260 | 0.0 | 1.0 | 0.03 | 0.03 | 0.03 | 92 | 1013.9 |
| 20260509121403 | 44 | 260 | 0.0 | 1.0 | 0.03 | 0.03 | 0.03 | 92 | 1013.9 |
| 20260509120401 | 44 | 260 | 0.0 | 1.0 | 0.03 | 0.03 | 0.03 | 92 | 1014.0 |
| 20260509115902 | 44 | 260 | 0.0 | 1.0 | 0.03 | 0.03 | 0.03 | 92 | 1014.1 |
| 20260509115402 | 44 | 260 | 0.0 | 1.0 | 0.02 | 0.02 | 0.02 | 91 | 1014.2 |
| 20260509114903 | 44 | 260 | 0.0 | 1.0 | 0.02 | 0.02 | 0.02 | 91 | 1014.3 |
| 20260509114408 | 43 | 260 | 0.0 | 1.0 | 0.02 | 0.02 | 0.02 | 91 | 1014.6 |
| 20260509114403 | 44 | 260 | 0.0 | 1.0 | 0.02 | 0.02 | 0.02 | 91 | 1014.4 |
| 20260509113402 | 43 | 260 | 0.0 | 1.0 | 0.01 | 0.01 | 0.01 | 91 | 1014.7 |
| 20260509112901 | 43 | 260 | 0.0 | 1.0 | 0.01 | 0.01 | 0.01 | 90 | 1014.8 |
| 20260509112403 | 43 | 260 | 0.0 | 1.0 | 0.01 | 0.01 | 0.01 | 90 | 1014.8 |
| 20260509111901 | 43 | 260 | 0.0 | 1.0 | 0.00 | 0.00 | 0.00 | 90 | 1014.7 |
| 20260509111359 | 43 | 260 | 0.0 | 0.0 | 0.00 | 0.00 | 0.00 | 90 | 1014.7 |
| 20260509110901 | 42 | 260 | 0.0 | 1.0 | 0.00 | 0.00 | 0.00 | 90 | 1014.6 |
| 20260509110359 | 42 | 260 | 0.0 | 1.0 | 0.00 | 0.00 | 0.00 | 90 | 1014.7 |
| 20260509105900 | 42 | 260 | 0.0 | 1.0 | 0.00 | 0.00 | 0.00 | 90 | 1014.6 |
| 20260509105358 | 42 | 260 | 0.0 | 1.0 | 0.00 | 0.00 | 0.00 | 90 | 1014.5 |
| 20260509104857 | 42 | 260 | 0.0 | 1.0 | 0.00 | 0.00 | 0.00 | 90 | 1014.4 |
| 20260509104357 | 42 | 260 | 0.0 | 1.0 | 0.00 | 0.00 | 0.00 | 90 | 1014.5 |
| 20260509103857 | 42 | 260 | 0.0 | 1.0 | 0.00 | 0.00 | 0.00 | 90 | 1014.4 |
| 20260509103358 | 42 | 260 | 0.0 | 0.0 | 0.00 | 0.00 | 0.00 | 90 | 1014.1 |
| 20260509102855 | 42 | 260 | 0.0 | 0.0 | 0.00 | 0.00 | 0.00 | 91 | 1014.1 |
| 20260509102355 | 41 | 260 | 0.0 | 0.0 | 0.00 | 0.00 | 0.00 | 90 | 1013.7 |
| 20260509101856 | 41 | 260 | 0.0 | 1.0 | 0.00 | 0.00 | 0.00 | 91 | 1013.7 |
| 20260509101356 | 41 | 260 | 0.0 | 1.0 | 0.00 | 0.00 | 0.00 | 91 | 1013.5 |
| 20260509100901 | 40 | 260 | 0.0 | 1.0 | 0.00 | 0.00 | 0.00 | 91 | 1013.5 |
| 20260509100856 | 41 | 260 | 0.0 | 1.0 | 0.00 | 0.00 | 0.00 | 90 | 1013.6 |
| 20260509095851 | 40 | 260 | 0.0 | 0.0 | 0.00 | 0.00 | 0.00 | 90 | 1013.3 |
| 20260509095352 | 40 | 260 | 0.0 | 1.0 | 0.00 | 0.00 | 0.00 | 90 | 1013.1 |
| 20260509094856 | 40 | 260 | 0.0 | 1.0 | 0.00 | 0.00 | 0.00 | 91 | 1013.1 |
| 20260509094851 | 40 | 260 | 0.0 | 1.0 | 0.00 | 0.00 | 0.00 | 90 | 1013.3 |
| 20260509093851 | 39 | 260 | 0.0 | 0.0 | 0.00 | 0.00 | 0.00 | 90 | 1012.9 |
| 20260509093351 | 39 | 260 | 0.0 | 0.0 | 0.00 | 0.00 | 0.00 | 90 | 1013.0 |
| 20260509092850 | 39 | 260 | 0.0 | 0.0 | 0.00 | 0.00 | 0.00 | 90 | 1013.0 |
| 20260509092350 | 38 | 260 | 0.0 | 0.0 | 0.00 | 0.00 | 0.00 | 90 | 1013.1 |
| 20260509091854 | 38 | 260 | 0.0 | 0.0 | 0.00 | 0.00 | 0.00 | 89 | 1013.1 |
| 20260509091848 | 38 | 260 | 0.0 | 0.0 | 0.00 | 0.00 | 0.00 | 90 | 1013.1 |
| 20260509090848 | 38 | 260 | 0.0 | 0.0 | 0.00 | 0.00 | 0.00 | 89 | 1013.1 |
| 20260509090348 | 38 | 260 | 0.0 | 0.0 | 0.00 | 0.00 | 0.00 | 89 | 1013.2 |
| 20260509085849 | 38 | 260 | 0.0 | 0.0 | 0.00 | 0.00 | 0.00 | 89 | 1013.1 |
| 20260509085352 | 39 | 260 | 0.0 | 0.0 | 0.00 | 0.00 | 0.00 | 89 | 1012.9 |
| 20260509085348 | 39 | 260 | 0.0 | 0.0 | 0.00 | 0.00 | 0.00 | 89 | 1012.9 |
| 20260509084348 | 39 | 260 | 0.0 | 0.0 | 0.00 | 0.00 | 0.00 | 89 | 1012.8 |
| 20260509083848 | 39 | 260 | 0.0 | 0.0 | 0.00 | 0.00 | 0.00 | 88 | 1012.8 |
| 20260509083349 | 39 | 260 | 0.0 | 0.0 | 0.00 | 0.00 | 0.00 | 88 | 1012.9 |
| 20260509082852 | 39 | 260 | 0.0 | 0.0 | 0.00 | 0.00 | 0.00 | 88 | 1013.2 |
| 20260509082845 | 39 | 260 | 0.0 | 0.0 | 0.00 | 0.00 | 0.00 | 88 | 1013.1 |
| 20260509082346 | 39 | 260 | 0.0 | 0.0 | 0.00 | 0.00 | 0.00 | 88 | 1013.1 |
| 20260509081345 | 39 | 260 | 0.0 | 0.0 | 0.00 | 0.00 | 0.00 | 88 | 1013.3 |
| 20260509080846 | 39 | 260 | 0.0 | 0.0 | 0.00 | 0.00 | 0.00 | 88 | 1013.3 |
| 20260509080345 | 39 | 260 | 0.0 | 1.0 | 0.00 | 0.00 | 0.00 | 88 | 1013.2 |
| 20260509075845 | 39 | 260 | 0.0 | 1.0 | 0.00 | 0.00 | 0.00 | 87 | 1013.3 |
| 20260509075344 | 39 | 260 | 0.0 | 0.0 | 0.00 | 0.00 | 0.00 | 87 | 1013.3 |
| 20260509074844 | 39 | 260 | 0.0 | 0.0 | 0.00 | 0.00 | 0.00 | 87 | 1013.2 |
| 20260509074344 | 39 | 260 | 0.0 | 0.0 | 0.00 | 0.00 | 0.00 | 86 | 1013.2 |
| 20260509073840 | 39 | 260 | 0.0 | 0.0 | 0.00 | 0.00 | 0.00 | 86 | 1013.3 |
| 20260509073346 | 39 | 260 | 0.0 | 1.0 | 0.00 | 0.00 | 0.00 | 87 | 1013.2 |
| 20260509073342 | 39 | 260 | 0.0 | 0.0 | 0.00 | 0.00 | 0.00 | 87 | 1013.2 |
| 20260509072341 | 39 | 260 | 0.0 | 1.0 | 0.00 | 0.00 | 0.00 | 86 | 1013.3 |
| 20260509071841 | 39 | 260 | 0.0 | 1.0 | 0.00 | 0.00 | 0.00 | 86 | 1013.4 |
| 20260509071341 | 39 | 260 | 0.0 | 0.0 | 0.00 | 0.00 | 0.00 | 86 | 1013.3 |
| 20260509070841 | 39 | 260 | 0.0 | 1.0 | 0.00 | 0.00 | 0.00 | 86 | 1013.1 |
| 20260509070342 | 40 | 260 | 0.0 | 1.0 | 0.00 | 0.00 | 0.00 | 86 | 1013.3 |
| 20260509065841 | 40 | 260 | 0.0 | 0.0 | 0.00 | 0.00 | 0.00 | 86 | 1013.3 |
| 20260509065342 | 40 | 260 | 0.0 | 1.0 | 0.00 | 0.00 | 0.00 | 86 | 1013.2 |
| 20260509064845 | 40 | 260 | 0.0 | 1.0 | 0.00 | 0.00 | 0.00 | 85 | 1013.2 |
| 20260509064840 | 40 | 260 | 0.0 | 1.0 | 0.00 | 0.00 | 0.00 | 85 | 1013.2 |
| 20260509063844 | 40 | 260 | 0.0 | 1.0 | 0.00 | 0.00 | 0.00 | 85 | 1013.2 |
| 20260509063839 | 40 | 260 | 0.0 | 1.0 | 0.00 | 0.00 | 0.00 | 85 | 1013.2 |
| 20260509062846 | 40 | 260 | 0.0 | 1.0 | 0.00 | 0.00 | 0.00 | 85 | 1013.1 |
| 20260509062841 | 40 | 260 | 0.0 | 1.0 | 0.00 | 0.00 | 0.00 | 85 | 1013.2 |
| 20260509061839 | 40 | 260 | 0.0 | 1.0 | 0.00 | 0.00 | 0.00 | 85 | 1013.1 |
| 20260509061340 | 40 | 260 | 0.0 | 1.0 | 0.00 | 0.00 | 0.00 | 85 | 1013.1 |
| 20260509060839 | 40 | 260 | 0.0 | 1.0 | 0.00 | 0.00 | 0.00 | 84 | 1012.9 |
| 20260509060341 | 41 | 260 | 0.0 | 1.0 | 0.00 | 0.00 | 0.00 | 84 | 1012.9 |
| 20260509055838 | 41 | 260 | 0.0 | 0.0 | 0.00 | 0.00 | 0.00 | 83 | 1012.8 |
| 20260509055343 | 41 | 260 | 0.0 | 0.0 | 0.00 | 0.00 | 0.00 | 82 | 1012.9 |
| 20260509055338 | 41 | 260 | 0.0 | 0.0 | 0.00 | 0.00 | 0.00 | 83 | 1012.8 |
| 20260509054345 | 41 | 260 | 0.0 | 0.0 | 0.00 | 0.00 | 0.00 | 82 | 1012.9 |
| 20260509054341 | 41 | 260 | 0.0 | 0.0 | 0.00 | 0.00 | 0.00 | 83 | 1012.9 |
| 20260509053340 | 41 | 260 | 0.0 | 0.0 | 0.00 | 0.00 | 0.00 | 82 | 1012.9 |
| 20260509052838 | 42 | 260 | 0.0 | 0.0 | 0.00 | 0.00 | 0.00 | 82 | 1012.9 |
| 20260509052339 | 42 | 260 | 0.0 | 0.0 | 0.00 | 0.00 | 0.00 | 81 | 1012.9 |
| 20260509051841 | 42 | 260 | 0.0 | 1.0 | 0.00 | 0.00 | 0.00 | 81 | 1012.8 |
| 20260509051340 | 42 | 260 | 0.0 | 1.0 | 0.00 | 0.00 | 0.00 | 81 | 1012.9 |
| 20260509050839 | 42 | 0 | 0.0 | 1.0 | 0.00 | 0.00 | 0.00 | 80 | 1012.9 |
| 20260509050345 | 42 | 260 | 0.0 | 1.0 | 0.00 | 0.00 | 0.00 | 80 | 1013.0 |
| 20260509050341 | 42 | 259 | 0.0 | 1.0 | 0.00 | 0.00 | 0.00 | 80 | 1013.0 |
| 20260509045957 | 42 | 260 | 0.0 | 1.0 | 0.00 | 0.00 | 0.00 | 80 | 1012.9 |
| 20260509044840 | 43 | 260 | 0.0 | 1.0 | 0.00 | 0.00 | 0.00 | 79 | 1012.8 |
| 20260509044339 | 43 | 260 | 0.0 | 0.0 | 0.00 | 0.00 | 0.00 | 79 | 1012.8 |
| 20260509043836 | 43 | 260 | 0.0 | 0.0 | 0.00 | 0.00 | 0.00 | 78 | 1012.9 |
| 20260509043337 | 43 | 260 | 0.0 | 0.0 | 0.00 | 0.00 | 0.00 | 78 | 1012.8 |
| 20260509042834 | 43 | 260 | 0.0 | 0.0 | 0.00 | 0.00 | 0.00 | 77 | 1012.8 |
| 20260509042336 | 43 | 260 | 0.0 | 0.0 | 0.00 | 0.00 | 0.00 | 77 | 1012.8 |
| 20260509041835 | 44 | 260 | 0.0 | 0.0 | 0.00 | 0.00 | 0.00 | 76 | 1012.6 |
| 20260509041338 | 44 | 260 | 0.0 | 1.0 | 0.00 | 0.00 | 0.00 | 75 | 1012.5 |
| 20260509041332 | 44 | 260 | 0.0 | 1.0 | 0.00 | 0.00 | 0.00 | 76 | 1012.6 |
| 20260509040335 | 44 | 260 | 0.0 | 0.0 | 0.00 | 0.00 | 0.00 | 75 | 1012.6 |
| 20260509035836 | 44 | 260 | 0.0 | 0.0 | 0.00 | 0.00 | 0.00 | 74 | 1012.5 |
| 20260509035830 | 44 | 260 | 0.0 | 0.0 | 0.00 | 0.00 | 0.00 | 74 | 1012.4 |
| 20260509034831 | 44 | 260 | 0.0 | 0.0 | 0.00 | 0.00 | 0.00 | 74 | 1012.4 |
| 20260509034331 | 45 | 258 | 0.0 | 0.0 | 0.00 | 0.00 | 0.00 | 73 | 1012.4 |
| 20260509033830 | 45 | 0 | 0.0 | 0.0 | 0.00 | 0.00 | 0.00 | 73 | 1012.5 |
| 20260509033328 | 45 | 0 | 0.0 | 0.0 | 0.00 | 0.00 | 0.00 | 73 | 1012.4 |
| 20260509032834 | 45 | 260 | 0.0 | 1.0 | 0.00 | 0.00 | 0.00 | 72 | 1012.5 |
| 20260509032828 | 45 | 0 | 0.0 | 1.0 | 0.00 | 0.00 | 0.00 | 72 | 1012.5 |
| 20260509031829 | 46 | 260 | 0.0 | 1.0 | 0.00 | 0.00 | 0.00 | 72 | 1012.5 |
| 20260509031328 | 46 | 260 | 0.0 | 1.0 | 0.00 | 0.00 | 0.00 | 72 | 1012.4 |
| 20260509030830 | 46 | 260 | 0.0 | 1.0 | 0.00 | 0.00 | 0.00 | 71 | 1012.4 |
| 20260509030331 | 46 | 260 | 0.0 | 1.0 | 0.00 | 0.00 | 0.00 | 71 | 1012.3 |
| 20260509030326 | 46 | 260 | 0.0 | 1.0 | 0.00 | 0.00 | 0.00 | 71 | 1012.4 |
| 20260509025327 | 46 | 260 | 0.0 | 1.0 | 0.00 | 0.00 | 0.00 | 70 | 1012.3 |
| 20260509024827 | 47 | 260 | 0.0 | 1.0 | 0.00 | 0.00 | 0.00 | 70 | 1012.2 |
| 20260509024325 | 47 | 259 | 0.0 | 1.0 | 0.00 | 0.00 | 0.00 | 70 | 1012.2 |
| 20260509023825 | 47 | 259 | 0.0 | 1.0 | 0.00 | 0.00 | 0.00 | 69 | 1012.1 |
| 20260509023326 | 47 | 260 | 0.0 | 0.0 | 0.00 | 0.00 | 0.00 | 69 | 1012.0 |
| 20260509022829 | 47 | 260 | 0.0 | 0.0 | 0.00 | 0.00 | 0.00 | 68 | 1012.0 |
| 20260509022824 | 47 | 260 | 0.0 | 0.0 | 0.00 | 0.00 | 0.00 | 68 | 1012.0 |
| 20260509021825 | 48 | 260 | 0.0 | 0.0 | 0.00 | 0.00 | 0.00 | 68 | 1012.0 |
| 20260509021325 | 48 | 260 | 0.0 | 0.0 | 0.00 | 0.00 | 0.00 | 66 | 1011.9 |
| 20260509020824 | 48 | 260 | 0.0 | 0.0 | 0.00 | 0.00 | 0.00 | 66 | 1011.9 |
| 20260509020332 | 48 | 260 | 0.0 | 1.0 | 0.00 | 0.00 | 0.00 | 65 | 1011.7 |
| 20260509020327 | 48 | 260 | 0.0 | 0.0 | 0.00 | 0.00 | 0.00 | 65 | 1011.8 |
| 20260509015323 | 49 | 260 | 0.0 | 1.0 | 0.00 | 0.00 | 0.00 | 65 | 1011.7 |
| 20260509014823 | 49 | 260 | 0.0 | 0.0 | 0.00 | 0.00 | 0.00 | 64 | 1011.6 |
| 20260509014327 | 49 | 0 | 0.0 | 1.0 | 0.00 | 0.00 | 0.00 | 63 | 1011.5 |
| 20260509014322 | 49 | 260 | 0.0 | 1.0 | 0.00 | 0.00 | 0.00 | 63 | 1011.5 |
| 20260509013941 | 49 | 0 | 0.0 | 1.0 | 0.00 | 0.00 | 0.00 | 63 | 1011.4 |
| 20260509013439 | 49 | 259 | 0.0 | 1.0 | 0.00 | 0.00 | 0.00 | 62 | 1011.1 |
| 20260509012822 | 49 | 259 | 0.0 | 1.0 | 0.00 | 0.00 | 0.00 | 62 | 1011.2 |
| 20260509011823 | 50 | 259 | 0.0 | 1.0 | 0.00 | 0.00 | 0.00 | 63 | 1011.1 |
| 20260509011327 | 50 | 260 | 0.0 | 1.0 | 0.00 | 0.00 | 0.00 | 62 | 1010.9 |
| 20260509011322 | 50 | 260 | 0.0 | 1.0 | 0.00 | 0.00 | 0.00 | 62 | 1010.9 |
| 20260509010320 | 50 | 260 | 0.0 | 1.0 | 0.00 | 0.00 | 0.00 | 62 | 1010.8 |
| 20260509005826 | 51 | 260 | 0.0 | 1.0 | 0.00 | 0.00 | 0.00 | 60 | 1010.6 |
| 20260509005821 | 51 | 260 | 0.0 | 1.0 | 0.00 | 0.00 | 0.00 | 60 | 1010.7 |
| 20260509004820 | 51 | 259 | 0.0 | 1.0 | 0.00 | 0.00 | 0.00 | 59 | 1010.5 |
| 20260509004318 | 51 | 0 | 0.0 | 1.0 | 0.00 | 0.00 | 0.00 | 58 | 1010.4 |
| 20260509003818 | 52 | 257 | 0.0 | 1.0 | 0.00 | 0.00 | 0.00 | 57 | 1010.3 |
| 20260509003320 | 52 | 0 | 0.0 | 1.0 | 0.00 | 0.00 | 0.00 | 56 | 1010.1 |
| 20260509002823 | 53 | 0 | 0.0 | 1.0 | 0.00 | 0.00 | 0.00 | 55 | 1009.9 |
| 20260509002818 | 53 | 0 | 0.0 | 1.0 | 0.00 | 0.00 | 0.00 | 55 | 1009.9 |
| 20260509001817 | 54 | 0 | 0.0 | 1.0 | 0.00 | 0.00 | 0.00 | 54 | 1009.9 |
| 20260509001314 | 54 | 0 | 0.0 | 2.0 | 0.00 | 0.00 | 0.00 | 53 | 1009.7 |
| 20260509000815 | 55 | 260 | 0.0 | 2.0 | 0.00 | 0.00 | 0.00 | 52 | 1009.6 |
| 20260509000313 | 55 | 259 | 1.0 | 3.0 | 0.00 | 0.00 | 0.00 | 51 | 1009.5 |
| 20260508235814 | 55 | 259 | 1.0 | 3.0 | 0.00 | 0.00 | 0.00 | 50 | 1009.3 |
| 20260508235316 | 56 | 0 | 1.0 | 3.0 | 0.00 | 0.00 | 0.00 | 50 | 1009.2 |
| 20260508234814 | 56 | 273 | 1.0 | 8.0 | 0.00 | 0.00 | 0.00 | 49 | 1009.2 |
| 20260508234314 | 56 | 302 | 2.0 | 8.0 | 0.00 | 0.00 | 0.00 | 49 | 1009.1 |
| 20260508233815 | 56 | 286 | 2.0 | 5.0 | 0.00 | 0.00 | 0.00 | 48 | 1009.1 |